Wetbulb
27.59 24.83 21.17 24.12 26.35 27.32 26.31 24.08 22.32 25.11 29.27 28.18 26.65 27.12 29.30 32.21 32.13 31.41 32.27 32.92 30.00 31.90 36.54 38.11 42.18 47.42 56.26 59.26 59.36 60.93 60.87 62.38 62.17 61.26 60.32 59.79 58.90 59.22 59.15 59.48 59.84 59.39 59.68 59.51
24.97 21.85 26.44 29.08 28.89 26.76 25.98 23.93 22.48 26.01 28.88 27.72 25.90 24.78 28.57 30.72 30.99 31.84 31.98 32.69 31.17 31.39 33.74 36.35 39.21 43.42 56.45 57.73 58.50 60.08 61.42 61.07 62.45 61.92 61.52 60.91 59.90 59.26 59.20 59.23 59.00 59.02 59.22 59.27
21.71 24.97 29.52 27.24 24.71 23.67 24.13 22.81 22.76 22.48 26.48 27.68 25.30 23.00 25.08 29.25 31.73 33.13 34.16 34.75 34.26 31.97 32.96 35.07 36.85 39.95 47.24 56.31 58.70 59.97 60.96 62.16 62.69 62.78 62.23 61.50 60.40 59.08 56.41 56.13 57.23 58.24 58.56 58.71
23.97 28.02 26.70 24.91 23.77 26.17 20.36 27.07 26.08 25.06 23.32 16.74 25.02 14.40 23.42 24.69 26.46 29.28 31.81 33.38 34.04 31.66 34.10 35.32 35.74 37.95 41.49 53.30 57.18 59.40 60.19 61.36 62.81 62.90 61.58 60.05 58.48 56.87 57.22 56.25 57.25 57.53 57.97 58.72
22.18 24.71 24.27 21.44 24.73 27.19 23.40 28.60 26.28 25.28 22.54 21.64 21.29 17.74 19.44 24.08 23.88 27.14 29.70 30.75 31.83 32.37 33.85 34.57 35.34 38.27 42.99 54.57 55.38 58.05 59.26 60.14 61.53 61.97 61.27 59.90 59.03 58.19 57.61 57.17 56.01 56.11 56.80 57.39
25.07 29.60 27.52 26.42 27.98 27.51 28.53 25.29 25.39 25.39 23.16 12.61 20.74 19.68 19.68 20.98 22.38 23.70 27.42 29.50 32.94 32.19 33.07 34.32 36.12 38.03 42.14 52.78 56.32 58.31 58.09 58.18 59.20 61.04 60.71 59.75 58.37 57.12 55.98 55.26 54.67 55.61 55.90 56.02
21.30 23.46 27.54 29.94 22.84 28.10 25.89 20.24 10.17 5.97 8.38 10.12 22.61 20.05 20.44 21.65 22.77 22.40 23.89 25.48 29.32 33.83 32.17 33.15 34.23 35.74 38.94 51.97 54.88 56.93 56.47 56.15 56.92 59.41 59.80 59.41 58.50 57.38 56.77 56.31 55.71 54.57 53.55 52.82
10.28 10.12 21.62 26.77 23.06 22.33 23.55 21.25 14.82 4.62 10.56 13.44 23.28 18.02 23.48 22.45 23.73 23.69 25.10 26.19 28.93 32.96 32.83 33.27 34.27 35.39 38.71 48.13 54.08 54.99 55.12 55.21 57.27 57.91 58.37 59.09 58.95 57.65 57.11 56.74 56.69 56.40 55.25 54.36
13.85 11.85 27.09 27.46 27.91 25.67 19.33 15.96 20.42 13.94 17.30 12.92 18.82 18.11 26.17 20.89 18.48 19.53 21.86 30.68 29.70 32.12 31.73 33.45 34.62 36.29 39.50 47.47 53.23 54.41 55.33 54.66 54.67 52.67 47.32 44.88 49.76 51.07 49.39 45.50 45.08 44.68 44.70 44.34
21.40 12.95 23.93 26.60 27.64 27.55 22.07 22.55 10.72 15.28 6.64 5.89 16.86 11.83 7.52 12.20 13.38 16.42 31.44 29.29 30.00 30.90 33.21 37.80 41.86 44.54 45.42 46.66 48.69 48.04 47.09 45.95 45.24 44.00 42.77 41.55 41.45 41.34 41.01 40.73 39.79 39.63 39.63 39.67
25.10 18.11 18.38 22.80 17.34 18.36 17.36 13.68 15.56 16.12 15.74 9.96 9.46 8.15 16.16 13.14 13.42 14.98 32.78 34.56 36.09 37.06 38.05 38.92 39.79 40.31 40.48 41.74 42.16 42.13 41.68 41.01 40.88 40.86 40.36 39.73 39.40 39.15 38.83 38.19 37.97 37.73 37.82 37.84
26.18 19.18 12.16 12.60 20.91 25.45 22.00 15.63 15.40 8.52 12.20 12.36 13.10 10.91 17.72 15.24 14.44 19.50 30.68 33.52 34.41 35.06 35.29 36.13 36.53 36.52 36.72 37.62 38.29 37.70 37.96 37.41 38.14 37.62 36.65 35.95 35.76 35.53 34.52 34.05 34.18 34.47 33.79 34.46
24.87 18.22 9.16 13.25 20.45 23.60 18.86 18.23 16.36 18.57 15.75 7.70 4.73 6.73 17.14 14.60 13.43 16.51 24.41 29.62 31.40 32.12 32.46 33.10 33.53 33.88 34.75 36.11 35.63 36.63 35.80 35.24 35.44 34.94 34.33 33.81 33.38 33.00 32.60 32.59 32.88 33.00 32.67 32.53
25.76 19.60 17.70 11.47 13.22 18.66 15.35 16.19 16.11 12.87 3.11 6.60 7.70 6.64 10.37 10.10 9.88 13.09 18.83 25.49 27.69 28.67 29.70 30.32 30.73 31.34 32.66 33.58 33.93 33.46 33.22 33.72 33.49 33.10 32.36 31.56 31.48 31.33 30.50 29.91 29.68 29.42 29.52 29.44
24.38 11.98 14.57 13.71 14.88 20.45 18.63 15.86 14.66 9.64 9.85 6.02 8.44 7.20 10.00 9.78 9.78 12.25 16.49 21.75 22.84 24.34 25.67 27.12 28.02 29.06 29.80 30.15 30.65 30.84 31.19 31.59 31.64 30.78 30.10 29.61 29.74 29.09 27.98 27.11 27.02 26.98 26.55 26.48
22.59 11.66 12.01 11.54 15.23 20.29 18.79 18.28 16.52 13.21 10.66 11.05 11.47 9.91 14.73 13.27 12.29 10.76 12.96 15.15 17.37 20.26 22.47 24.41 25.26 26.02 26.46 27.41 27.75 28.50 28.83 29.41 30.06 28.75 27.89 27.97 27.26 26.15 25.23 24.54 23.92 23.87 23.84 24.48
19.32 20.34 15.01 10.21 13.94 15.60 12.39 16.43 15.92 14.82 12.92 10.87 4.36 9.56 13.99 10.93 9.23 8.98 9.95 12.39 13.07 15.95 19.07 20.54 21.63 23.70 24.66 25.21 25.84 25.14 25.97 26.97 26.37 26.31 26.38 25.40 24.47 23.13 22.66 22.59 21.89 21.05 20.66 21.42
21.04 20.76 13.37 7.15 9.57 9.81 21.82 22.87 20.78 17.55 15.44 13.52 12.17 11.87 13.12 14.91 12.84 11.78 12.13 10.89 11.17 13.31 16.54 17.58 19.31 20.98 22.51 23.51 23.63 24.09 23.90 23.35 22.69 21.75 21.88 22.49 22.15 21.27 21.17 20.61 19.88 19.62 19.68 19.13
22.17 18.27 7.09 8.02 4.95 21.28 20.44 19.63 16.45 15.03 15.92 16.02 12.57 12.27 13.28 20.76 21.08 13.04 12.61 12.75 12.89 13.19 15.12 17.42 18.90 18.99 19.48 20.24 21.22 20.99 19.74 19.60 19.31 18.51 18.86 19.62 19.94 19.08 19.07 18.50 18.33 18.75 18.40 17.96
23.98 20.10 12.86 2.88 4.25 9.66 15.87 18.81 22.57 20.95 16.55 16.55 14.78 12.14 11.47 16.95 9.80 8.75 11.75 12.63 12.63 14.77 14.67 14.63 16.90 18.04 17.65 17.21 19.10 18.58 17.86 17.51 16.93 17.68 18.00 18.37 18.41 17.48 16.43 16.99 16.79 17.47 17.89 17.77
9.68 9.88 6.47 2.29 3.33 14.53 14.40 18.91 21.76 13.57 16.63 12.06 11.51 12.86 11.67 7.51 5.61 7.95 11.83 11.58 12.88 13.24 14.45 14.23 13.43 13.02 15.60 17.18 16.86 15.22 15.17 14.80 17.08 17.53 17.35 17.27 17.29 16.36 16.01 15.50 15.52 15.27 14.93 14.86
15.49 10.50 4.00 0.07 3.56 9.00 15.99 19.19 15.91 12.21 7.57 7.07 7.37 10.41 9.72 6.36 6.81 8.44 10.07 10.49 11.11 10.58 11.52 12.85 11.37 10.65 12.06 15.10 14.73 12.78 11.98 14.02 14.48 14.24 14.03 14.62 15.28 16.27 16.16 14.00 14.06 13.49 12.65 11.57
14.15 17.32 12.98 13.22 12.75 12.84 10.55 9.75 11.35 8.57 8.90 8.51 13.66 14.67 15.21 13.16 11.40 11.42 10.27 10.11 10.43 10.29 10.42 11.22 10.42 9.42 9.23 10.63 12.13 9.91 10.51 11.76 11.01 10.09 8.87 10.66 11.57 14.09 14.89 13.17 13.57 12.37 11.58 10.25
20.48 23.95 17.97 16.22 16.54 11.95 10.36 13.58 13.55 14.07 17.29 19.27 18.92 17.27 16.26 12.65 12.00 10.45 10.86 9.77 8.82 9.29 8.19 9.24 8.29 6.81 6.06 7.36 8.38 8.66 9.96 10.02 7.69 6.71 7.48 7.88 7.49 8.88 10.57 13.18 13.13 12.65 12.37 10.40
21.48 22.62 20.64 19.03 19.34 16.31 17.37 19.32 18.19 17.12 17.46 18.03 17.21 16.58 15.00 13.16 9.99 9.59 9.63 9.10 8.47 7.99 7.53 7.46 6.43 5.37 4.28 5.28 4.66 4.49 6.53 7.95 7.82 6.90 6.87 6.41 6.33 5.39 5.44 7.69 12.32 11.84 13.60 14.32
22.81 21.76 19.19 18.89 22.67 21.73 22.06 20.74 20.64 18.24 17.58 17.03 15.67 13.90 14.34 13.73 11.24 10.04 7.75 7.45 6.98 5.63 5.76 4.68 3.62 2.74 1.57 1.30 0.33 -0.16 -0.11 2.70 5.25 4.52 3.81 2.94 2.70 2.05 2.40 1.47 1.83 12.04 15.00 15.80
MSLP
1015.64 1015.99 1015.88 1015.43 1015.29 1015.00 1014.58 1014.05 1012.93 1011.32 1011.20 1011.01 1010.14 1009.01 1008.67 1008.32 1008.07 1007.73 1007.34 1006.98 1006.89 1006.70 1005.88 1005.19 1004.71 1004.44 1003.86 1003.73 1003.78 1003.79 1004.00 1003.84 1004.66 1004.86 1006.62 1007.81 1008.57 1009.24 1009.81 1010.44 1010.54 1011.22 1011.84 1012.54
1016.34 1015.85 1015.23 1015.09 1014.90 1014.64 1014.35 1013.61 1011.99 1010.45 1010.32 1010.29 1009.19 1008.16 1007.67 1007.26 1006.79 1006.65 1006.45 1006.26 1006.26 1006.24 1005.75 1005.06 1004.59 1004.24 1003.79 1003.77 1003.13 1003.45 1003.49 1004.15 1003.97 1004.27 1006.16 1006.88 1007.91 1008.68 1009.06 1009.91 1010.27 1010.68 1011.18 1011.74
1016.51 1015.52 1015.17 1014.99 1014.46 1014.12 1013.51 1013.12 1011.84 1011.28 1010.21 1009.79 1008.90 1007.78 1006.34 1005.57 1005.47 1005.48 1005.26 1005.09 1005.45 1005.52 1005.47 1004.79 1004.54 1003.93 1003.68 1003.62 1002.81 1003.53 1003.62 1003.98 1004.19 1004.29 1005.26 1006.32 1007.51 1008.67 1009.10 1009.68 1010.18 1010.45 1010.64 1011.34
1016.22 1015.33 1015.25 1014.76 1014.47 1014.22 1013.03 1012.28 1012.00 1011.34 1010.97 1009.77 1009.26 1007.92 1006.27 1005.35 1005.19 1005.39 1005.12 1005.06 1004.77 1004.81 1004.73 1004.34 1004.21 1003.94 1003.26 1003.05 1002.47 1003.16 1003.74 1003.69 1003.80 1004.04 1003.64 1005.13 1006.15 1007.03 1007.56 1008.63 1009.26 1009.65 1010.03 1010.62
1016.58 1015.55 1015.09 1014.85 1014.46 1014.26 1013.27 1012.22 1011.94 1011.13 1010.68 1010.30 1008.68 1009.11 1006.63 1006.31 1006.84 1007.00 1006.50 1005.76 1005.12 1004.71 1004.32 1003.89 1003.66 1003.40 1002.73 1002.31 1002.11 1002.93 1003.43 1003.63 1002.86 1003.83 1004.13 1005.19 1006.02 1006.62 1006.76 1007.88 1008.71 1009.63 1009.84 1010.32
1016.76 1015.90 1015.59 1015.23 1014.35 1013.77 1013.17 1012.55 1010.65 1010.27 1010.35 1009.90 1008.37 1008.69 1008.04 1008.70 1009.55 1008.31 1007.53 1006.77 1006.01 1004.82 1004.14 1003.73 1003.22 1003.10 1002.53 1002.31 1003.28 1002.41 1003.20 1004.05 1003.73 1004.17 1003.97 1005.36 1005.74 1006.42 1006.62 1007.49 1008.47 1009.36 1009.78 1010.16
1017.58 1016.62 1016.02 1015.49 1014.64 1013.46 1013.46 1012.84 1011.93 1011.19 1010.51 1009.57 1008.58 1008.93 1009.30 1009.98 1009.79 1009.90 1008.37 1007.22 1006.21 1005.15 1004.20 1003.76 1003.49 1003.30 1003.03 1003.01 1003.01 1002.67 1003.76 1004.22 1004.56 1004.62 1005.21 1006.00 1006.36 1006.18 1006.96 1007.60 1008.09 1008.89 1009.55 1010.30
1019.89 1017.68 1016.86 1016.16 1016.08 1015.36 1014.54 1014.40 1013.99 1013.38 1011.43 1010.11 1008.93 1009.11 1009.15 1010.13 1009.97 1009.65 1008.07 1006.19 1005.49 1004.66 1003.92 1003.72 1003.65 1003.57 1003.34 1003.02 1003.24 1003.52 1004.11 1004.87 1005.33 1005.72 1005.74 1006.16 1005.95 1006.21 1006.46 1006.69 1007.99 1008.59 1009.01 1010.09
1021.10 1019.19 1017.34 1016.80 1016.26 1016.28 1015.18 1015.11 1015.11 1014.31 1012.30 1011.74 1009.98 1010.67 1009.97 1011.42 1010.04 1008.35 1006.52 1003.95 1004.39 1004.05 1003.83 1003.78 1004.14 1004.19 1004.04 1004.20 1003.93 1004.54 1004.91 1005.69 1006.35 1006.53 1007.01 1007.71 1008.01 1007.91 1008.23 1009.14 1009.47 1010.77 1011.13 1011.76
1021.75 1020.32 1017.97 1017.02 1016.83 1016.84 1017.05 1017.01 1015.70 1014.71 1013.78 1012.71 1011.98 1013.71 1015.74 1014.52 1013.57 1010.54 1006.94 1005.34 1005.30 1005.15 1005.05 1005.03 1005.19 1005.28 1005.31 1005.56 1005.63 1005.73 1006.43 1007.32 1008.32 1008.66 1008.71 1009.19 1011.47 1010.46 1010.51 1010.87 1011.75 1011.86 1012.25 1012.88
1021.92 1021.66 1018.79 1018.08 1018.65 1018.23 1017.77 1017.77 1017.37 1016.59 1015.41 1015.12 1015.06 1016.97 1018.47 1018.07 1016.84 1013.71 1009.25 1007.62 1006.72 1006.85 1006.71 1006.72 1007.03 1007.04 1007.15 1007.34 1007.58 1008.09 1008.39 1009.11 1009.87 1010.36 1010.16 1011.20 1012.87 1012.43 1012.44 1012.74 1013.65 1013.62 1014.06 1014.96
1022.25 1021.64 1020.43 1019.79 1019.51 1019.41 1019.44 1019.44 1018.85 1018.05 1017.06 1017.20 1017.41 1018.69 1019.28 1019.54 1018.06 1015.27 1011.75 1010.16 1009.17 1009.09 1008.86 1008.56 1008.90 1008.70 1009.06 1009.78 1009.85 1010.13 1010.75 1010.55 1011.55 1011.98 1012.14 1013.14 1014.31 1014.79 1015.01 1015.15 1015.48 1015.95 1016.02 1016.34
1022.77 1022.05 1021.77 1020.08 1019.90 1019.66 1019.62 1020.07 1019.50 1018.57 1018.89 1019.80 1020.12 1020.73 1021.21 1020.87 1019.08 1017.06 1015.03 1013.09 1012.06 1011.28 1010.72 1010.85 1010.72 1010.82 1011.43 1012.02 1012.13 1012.28 1012.63 1012.96 1013.83 1012.72 1014.22 1015.46 1016.19 1016.56 1017.30 1017.01 1017.16 1017.90 1017.81 1017.81
1023.00 1023.13 1023.22 1023.15 1022.21 1022.09 1021.26 1021.31 1021.52 1021.44 1021.79 1022.27 1022.97 1023.54 1022.61 1022.27 1021.45 1019.88 1017.89 1016.46 1015.01 1013.70 1013.27 1013.21 1013.09 1013.37 1013.81 1014.15 1014.35 1014.15 1014.56 1015.23 1014.78 1014.88 1016.61 1016.79 1017.37 1018.51 1019.25 1019.86 1020.27 1019.86 1019.76 1019.86
1023.69 1024.13 1023.81 1023.16 1022.67 1022.65 1022.90 1022.69 1022.79 1023.03 1023.80 1024.04 1024.39 1024.50 1025.11 1025.14 1024.53 1023.19 1021.52 1019.47 1017.15 1016.48 1015.89 1015.98 1016.03 1015.95 1016.25 1016.06 1016.00 1015.78 1016.01 1016.01 1016.55 1017.59 1018.09 1018.77 1019.94 1021.33 1021.34 1021.44 1021.81 1021.93 1021.58 1021.94
1024.47 1024.73 1024.56 1023.86 1023.17 1023.14 1022.98 1023.19 1023.65 1024.12 1024.80 1025.25 1025.33 1025.45 1026.28 1026.31 1025.74 1024.54 1023.31 1021.74 1020.24 1019.69 1019.27 1018.97 1018.49 1018.19 1017.94 1018.31 1017.91 1017.77 1017.85 1018.71 1019.59 1019.95 1020.58 1021.55 1022.35 1022.79 1022.83 1023.08 1023.26 1023.65 1023.11 1023.16
1025.30 1025.44 1025.41 1025.09 1023.92 1023.03 1023.22 1024.21 1024.96 1025.83 1026.52 1026.83 1026.96 1027.95 1027.43 1027.36 1027.04 1026.34 1025.48 1024.37 1023.65 1022.97 1022.41 1021.67 1020.68 1020.72 1020.69 1020.14 1020.19 1020.09 1020.86 1021.30 1021.33 1021.97 1022.71 1023.20 1022.84 1023.13 1023.80 1024.06 1024.20 1024.52 1024.68 1024.98
1025.91 1025.89 1026.39 1026.55 1024.86 1024.45 1025.55 1025.49 1025.74 1026.36 1027.01 1027.68 1028.32 1028.54 1028.23 1028.14 1028.06 1027.49 1027.01 1026.58 1026.25 1025.74 1024.56 1023.75 1023.64 1023.39 1023.10 1022.74 1022.60 1022.70 1022.95 1023.38 1023.63 1023.76 1024.24 1024.70 1024.78 1024.82 1025.44 1025.83 1026.21 1026.26 1026.42 1026.45
1026.27 1026.56 1027.26 1027.85 1027.82 1026.80 1025.92 1026.42 1026.97 1027.50 1028.27 1028.91 1029.09 1028.79 1028.40 1027.63 1027.69 1028.16 1029.24 1029.06 1028.68 1028.23 1027.64 1026.87 1026.21 1025.55 1025.05 1024.90 1024.96 1024.68 1024.86 1025.29 1025.35 1026.00 1026.69 1026.76 1026.89 1027.19 1027.46 1027.70 1027.97 1027.90 1027.96 1028.26
1026.19 1026.55 1027.55 1029.30 1029.07 1028.38 1027.54 1027.32 1027.49 1028.13 1029.46 1030.34 1030.68 1030.50 1029.94 1028.88 1028.76 1031.73 1031.27 1030.72 1030.02 1029.31 1028.76 1028.35 1027.77 1027.29 1026.78 1027.17 1026.91 1026.27 1026.70 1027.07 1027.44 1028.05 1028.43 1028.51 1028.85 1028.66 1029.01 1029.46 1029.34 1029.37 1029.60 1029.81
1027.67 1028.02 1029.51 1030.34 1030.11 1028.88 1028.26 1027.80 1027.69 1029.10 1032.08 1031.83 1032.14 1032.06 1031.94 1031.95 1033.15 1033.23 1032.68 1032.12 1031.57 1031.03 1030.38 1030.09 1029.59 1029.19 1029.29 1029.34 1028.85 1028.37 1028.94 1029.16 1029.71 1029.76 1029.93 1030.00 1030.22 1030.30 1030.66 1030.70 1030.81 1030.90 1030.99 1030.94
1029.16 1029.53 1030.25 1030.41 1030.24 1029.86 1028.89 1028.50 1029.17 1031.30 1031.73 1032.13 1032.58 1032.92 1033.11 1033.32 1033.27 1033.29 1033.08 1032.68 1032.26 1031.90 1031.64 1031.39 1031.06 1031.17 1031.28 1030.93 1030.62 1030.73 1031.08 1031.71 1031.48 1031.43 1031.55 1031.73 1031.76 1032.05 1032.23 1032.01 1032.10 1032.16 1032.17 1032.21
1028.47 1028.42 1028.99 1029.70 1029.92 1029.99 1030.15 1030.95 1031.06 1031.40 1031.71 1032.19 1032.42 1032.71 1033.10 1033.40 1033.73 1033.87 1033.82 1033.64 1033.55 1033.37 1033.11 1033.01 1032.85 1033.05 1033.18 1032.95 1032.56 1032.59 1033.30 1033.09 1033.01 1033.03 1033.40 1033.55 1033.58 1033.38 1033.19 1033.07 1033.04 1032.99 1033.15 1033.31
1027.63 1027.52 1028.11 1028.96 1029.23 1029.80 1030.10 1030.50 1030.73 1031.24 1031.49 1031.62 1031.91 1032.41 1032.94 1033.56 1034.08 1034.32 1034.39 1034.53 1034.58 1034.63 1034.62 1034.64 1034.50 1034.68 1035.00 1035.01 1034.78 1034.77 1034.76 1034.62 1034.37 1034.48 1034.72 1034.74 1034.59 1034.58 1034.41 1034.20 1034.07 1033.92 1033.88 1033.97
1026.51 1026.78 1026.97 1027.58 1028.10 1029.00 1029.25 1029.67 1030.10 1030.84 1031.35 1031.74 1032.23 1032.57 1033.08 1033.69 1034.33 1034.80 1035.17 1035.50 1035.71 1035.85 1035.96 1035.97 1036.13 1036.38 1036.59 1036.51 1036.34 1036.21 1035.98 1035.68 1035.45 1035.64 1035.79 1035.94 1036.02 1036.08 1035.96 1035.67 1035.04 1034.83 1034.73 1034.50
1024.76 1024.39 1024.95 1024.85 1024.67 1025.95 1026.70 1027.98 1029.29 1030.28 1031.04 1031.66 1032.20 1033.07 1033.71 1034.19 1034.81 1035.45 1036.11 1036.58 1036.85 1037.19 1037.41 1037.43 1037.64 1037.89 1038.13 1038.03 1037.96 1037.75 1037.52 1036.86 1036.72 1037.04 1037.46 1037.70 1037.61 1037.58 1037.48 1037.23 1036.88 1035.94 1035.48 1035.27
Wind_Speed
2 2 6 10 8 14 15 17 24 23 17 17 19 21 20 20 16 16 17 15 9 9 12 9 9 8 9 9 8 8 11 11 12 11 10 10 10 9 8 8 12 12 11 11
4 6 7 6 8 14 13 19 22 21 12 11 17 22 19 17 16 17 17 17 10 6 8 10 9 6 6 9 8 8 11 10 16 12 12 9 10 8 9 9 10 12 13 13
4 8 10 10 11 11 14 13 19 20 17 10 18 17 16 17 20 19 18 18 11 10 10 11 7 9 5 8 8 9 11 14 15 11 12 9 8 4 4 5 6 10 11 11
6 4 12 13 5 7 11 4 10 13 12 6 6 9 12 6 11 10 15 15 15 10 10 10 7 9 8 7 5 7 8 4 12 14 16 16 12 10 7 9 8 8 12 13
7 11 13 4 10 14 10 14 17 19 15 13 8 6 7 6 10 15 14 10 6 9 11 12 9 9 9 6 4 6 5 3 6 5 11 10 11 9 7 8 10 8 8 9
13 4 1 3 17 13 15 12 20 9 6 4 4 8 3 6 13 17 16 16 14 9 9 8 8 6 6 2 4 7 6 5 7 3 5 9 12 9 8 7 8 7 5 6
9 5 4 3 11 8 17 15 5 6 2 5 5 5 6 17 22 19 22 19 16 13 8 8 8 6 6 4 5 8 8 5 5 4 5 3 5 7 7 7 6 6 4 3
6 10 8 8 2 10 15 8 5 6 4 7 7 3 4 22 28 22 21 23 14 13 8 7 7 5 5 1 5 7 8 8 4 5 8 10 12 5 6 7 6 4 2 2
6 7 3 8 5 9 10 8 16 6 10 5 3 8 2 31 35 38 37 4 7 7 7 6 5 2 6 4 5 4 6 9 11 15 16 20 16 13 13 16 15 9 10 8
3 8 4 6 6 4 10 12 6 3 4 5 6 7 11 30 35 36 19 12 11 10 11 12 12 14 14 15 14 16 18 18 16 16 17 20 15 17 16 16 17 15 14 14
3 2 9 5 7 14 11 9 5 6 4 4 5 3 12 21 27 28 18 19 21 18 17 16 15 16 18 18 19 17 18 20 19 17 20 21 18 18 18 18 17 17 18 15
3 4 5 5 4 8 9 14 5 3 5 4 3 3 20 22 24 24 21 19 20 18 17 19 18 21 21 19 18 19 18 21 18 18 20 22 18 18 18 18 19 18 18 18
7 4 6 10 2 8 8 22 19 2 4 13 5 7 17 23 24 27 22 19 17 20 22 20 21 22 20 18 19 18 18 21 18 22 22 21 20 20 20 20 20 18 19 20
2 3 2 2 7 4 18 22 21 13 4 6 7 12 24 26 26 26 23 18 17 21 22 19 21 21 20 17 17 19 21 19 20 24 20 22 22 20 19 18 18 19 19 19
4 2 4 6 3 0 13 16 20 18 12 7 9 11 17 19 19 18 16 16 22 23 23 21 19 18 17 17 18 20 21 21 22 21 21 21 19 18 18 18 18 17 19 17
5 4 5 5 4 4 10 22 19 17 15 6 10 10 17 15 15 18 19 20 23 23 21 19 21 20 19 16 18 20 22 21 18 19 19 18 17 17 17 17 17 17 18 18
5 5 6 7 7 5 5 20 11 11 15 6 10 9 15 13 16 19 19 21 20 19 17 18 20 18 16 19 17 20 18 17 19 19 18 16 17 18 17 17 18 17 18 16
6 5 3 4 8 10 5 11 3 6 20 19 11 12 9 3 11 18 21 20 19 16 17 19 15 15 16 16 18 18 18 18 18 19 17 16 16 17 17 17 16 16 15 17
6 1 4 5 2 1 3 9 8 6 11 18 16 17 15 3 4 20 21 18 15 14 11 12 13 15 17 16 15 17 18 17 18 18 16 15 15 15 15 16 15 14 14 14
2 4 5 5 7 5 4 5 6 1 11 15 16 16 16 15 15 6 17 16 15 16 14 14 15 15 18 15 14 18 18 17 18 16 16 15 15 16 16 14 14 13 12 12
6 6 5 3 2 6 3 13 4 6 1 4 5 8 11 6 1 5 9 11 12 11 14 13 14 16 15 12 13 18 16 17 14 15 15 15 15 16 14 13 12 12 12 12
1 3 1 2 5 5 5 3 7 4 2 3 2 2 3 4 6 5 8 11 12 14 14 14 14 15 14 13 13 17 16 12 12 14 14 14 14 12 10 12 11 12 10 11
1 5 4 5 6 4 3 4 3 4 4 2 3 3 4 4 5 7 8 10 12 13 11 12 11 13 13 13 12 15 10 10 11 13 12 12 11 10 11 11 10 9 9 8
2 3 3 3 4 4 4 2 3 5 4 4 4 5 6 6 5 5 6 7 8 9 10 9 10 12 12 10 11 10 9 8 10 12 11 10 11 10 10 9 8 9 8 8
4 6 6 3 2 1 6 7 7 5 4 6 5 4 6 6 5 4 5 6 7 7 7 7 8 8 9 8 10 9 8 5 11 11 10 10 9 10 8 8 7 7 8 10
8 10 7 7 11 6 6 12 12 11 9 8 7 6 5 4 6 5 5 5 5 6 5 7 8 8 8 8 10 10 9 7 9 11 8 7 6 6 6 6 6 14 14 17
Wind_Direction
302 296 251 273 242 257 273 281 284 279 283 278 266 261 257 261 255 248 251 258 238 237 259 267 273 281 230 210 183 208 211 195 158 157 171 173 177 176 176 186 178 177 186 185
331 255 269 286 282 284 282 282 279 282 283 275 270 268 266 255 249 238 240 251 238 214 258 268 277 287 233 205 175 206 216 226 173 160 174 173 178 189 179 186 183 184 187 186
261 273 311 333 314 291 281 270 281 279 307 261 270 276 260 253 245 245 242 240 235 205 228 254 257 273 244 219 175 173 209 186 209 183 160 156 151 147 140 170 186 196 189 189
270 285 322 316 304 350 300 311 291 288 306 295 75 297 299 259 245 237 247 249 235 207 215 237 233 264 265 226 175 177 180 181 204 184 167 172 173 177 176 182 189 190 180 186
272 310 331 312 327 333 267 292 284 278 269 289 268 237 279 15 10 357 351 321 264 229 219 225 218 234 256 250 155 161 152 156 244 177 160 169 184 187 165 171 179 188 183 186
291 295 7 275 317 301 275 294 292 268 241 250 258 199 325 23 345 328 324 321 320 272 228 237 230 240 267 267 222 110 115 101 58 106 161 173 193 169 154 153 161 177 190 193
330 333 313 317 329 317 334 335 315 350 9 228 350 190 57 4 353 333 318 307 298 295 239 223 230 216 254 214 162 119 129 104 102 122 102 24 201 173 171 175 168 165 148 188
7 330 19 319 260 309 321 332 320 309 313 314 271 301 119 3 347 327 306 287 261 268 234 207 225 235 242 231 136 124 149 133 148 178 162 205 198 196 184 181 176 165 134 37
328 281 268 294 310 31 316 337 303 254 257 237 245 358 307 349 340 341 327 135 192 239 195 173 115 6 5 355 144 143 83 63 35 42 56 44 18 37 50 60 54 50 63 57
287 295 316 310 9 22 345 348 348 337 316 324 41 63 344 344 336 327 354 47 44 41 56 59 58 51 46 45 59 66 71 69 66 65 68 63 25 51 56 58 61 60 60 54
295 183 296 13 9 343 5 358 315 289 273 335 334 87 359 347 331 324 30 54 64 65 69 69 61 59 55 52 54 59 63 68 64 63 66 67 55 52 57 59 55 57 62 56
333 272 288 254 269 14 30 1 335 262 29 319 306 76 8 351 337 346 19 40 58 59 60 62 63 63 57 55 59 60 63 69 62 69 70 62 61 59 61 61 64 56 62 61
352 330 330 348 334 10 21 10 4 356 353 14 20 329 349 350 353 2 8 28 50 59 58 61 57 60 60 59 60 64 62 68 72 70 64 69 66 61 57 55 56 58 60 61
21 294 309 293 262 323 9 17 20 22 27 318 34 335 2 353 357 353 1 20 43 54 55 60 59 58 58 61 64 68 68 67 67 71 68 66 63 62 63 62 59 58 58 60
47 325 336 278 235 282 23 19 20 28 7 37 332 26 7 360 349 349 358 20 43 48 49 51 59 62 60 62 63 64 64 61 63 67 68 67 69 67 68 64 61 60 60 59
5 315 7 296 310 278 5 22 23 23 12 7 353 37 2 360 2 10 18 25 37 39 42 45 51 53 49 56 63 63 63 62 67 71 69 71 76 74 67 65 63 61 60 58
344 326 8 309 333 346 359 10 15 32 30 338 21 331 335 6 15 19 15 24 30 29 34 40 45 46 48 51 55 61 65 66 63 64 66 65 65 67 63 61 58 55 55 52
305 330 60 282 357 37 355 20 348 14 32 20 9 356 342 24 43 33 22 21 17 18 33 34 39 45 46 52 57 64 61 61 63 61 59 59 61 62 59 58 57 56 54 51
202 298 56 70 48 206 9 4 350 0 29 18 3 0 356 360 104 37 15 12 19 22 29 36 42 47 47 49 55 66 65 63 61 59 57 56 59 64 62 59 56 56 58 56
47 49 94 29 80 26 242 327 309 162 41 17 4 3 360 1 63 350 348 1 12 25 29 30 37 48 49 36 48 62 61 59 59 59 60 58 57 59 58 55 54 53 55 59
346 7 71 23 75 291 278 312 300 58 229 9 9 7 18 48 95 277 329 5 19 25 34 34 42 45 43 43 55 64 60 55 56 60 57 55 56 59 57 57 51 51 52 51
34 19 317 68 52 341 13 325 100 198 322 140 3 22 38 15 357 346 6 21 26 31 31 36 49 44 34 38 53 61 56 51 58 61 57 54 53 53 53 60 54 50 47 47
346 171 185 167 205 240 281 162 213 170 157 219 145 135 94 67 46 34 27 28 33 31 34 35 48 54 39 36 46 61 46 55 63 64 57 55 54 50 54 54 53 53 47 47
240 172 138 78 238 237 220 239 183 183 168 139 104 101 102 105 69 44 49 42 39 35 36 35 53 56 49 33 43 48 50 55 68 65 58 50 52 49 40 53 46 45 41 37
197 137 164 245 222 273 224 211 169 156 133 120 102 115 128 123 90 72 66 56 51 52 42 43 58 62 52 42 44 27 20 36 71 66 58 49 46 41 35 34 43 48 34 39
188 176 173 207 180 164 183 171 162 159 169 160 146 128 105 121 120 103 74 50 51 43 27 51 50 58 40 42 42 29 16 30 70 67 54 46 49 38 39 29 17 30 32 30